STARLINK-36122

Last updated on Fri Dec 19 2025 00:02:08 GMT+0000 (Coordinated Universal Time)

1 66952U 25286AD 25352.58336806 -.01496373 00000+0 -79028-2 0 9999 2 66952 53.1552 20.9639 0001169 67.8389 90.4266 15.82643309 2930
UTC large
Height (km)
Speed (km/s)
/
Latitude / Longitude
Inclination (degrees)
Orbital Period (minutes)
Azimuth
Elevation
Range (km)
Doppler Factor

Next 0 passes for location: London (51.5072 / 0.1276)

Sorry there are no passes over London.